Terminal Aerodrome Forecast
Issued by NWS

Home | Current Version | Previous Version | Text Only | Print | Product List | Glossary On
Versions: 1 2 3 4 5 6 7 8 9 10 11 12
486
FTUS46 KHNX 062321
TAFFAT
TAF
KFAT 062321Z 0700/0724 VRB03KT P6SM FEW250
      TEMPO 0714/0718 4SM BR=

USA.gov is the U.S. government's official web portal to all federal, state and local government web resources and services.